Location: Asheville, NC
(35.6000°N, 82.5500°W)
Time: 04:53:44
(UTC-04:00)

Vanguard 1 Rocket - All Passes

Search period start: 25 May 2018 00:00
Search period end: 04 June 2018 00:00
Orbit: 652 x 4225 km, 34.3° (Epoch: 24 May)

Date Brightness Start Highest point End Pass type
(mag) Time Alt. Az. Time Alt. Az. Time Alt. Az.
25 May - 02:00:32 10° W 02:18:42 86° S 02:45:34 10° E visible
25 May - 04:29:09 10° W 04:52:45 77° SSW 05:17:16 10° ESE visible
25 May - 07:00:56 10° WNW 07:24:32 46° SW 07:43:22 10° SSE daylight
25 May - 09:44:02 10° WSW 09:51:37 12° WSW 09:58:20 10° SW daylight
25 May - 22:25:05 10° SSW 22:35:28 45° SE 22:54:13 10° ENE visible
26 May - 00:48:51 10° WSW 01:03:57 81° SSE 01:29:45 10° E visible
26 May - 03:16:04 10° W 03:37:04 84° S 04:03:25 10° ESE visible
26 May - 05:46:00 10° WNW 06:10:20 60° SSW 06:32:16 10° SE visible
26 May - 08:21:27 10° W 08:39:27 25° SW 08:53:57 10° S daylight
26 May - 21:16:19 10° S 21:24:19 27° SE 21:37:12 10° E visible
26 May - 23:37:55 10° SW 23:50:19 69° SSE 00:13:29 10° ENE visible
27 May - 02:03:43 10° W 02:21:35 87° S 02:48:26 10° E visible
27 May - 04:32:11 10° WNW 04:55:16 72° SSW 05:19:52 10° SE visible
27 May - 07:04:13 10° WNW 07:26:27 39° SW 07:45:05 10° SSE daylight
27 May - 20:10:37 10° SE 20:13:54 12° ESE 20:17:47 10° ESE daylight
27 May - 22:27:44 10° SW 22:37:53 52° SE 22:57:04 10° ENE visible
28 May - 00:52:01 10° WSW 01:06:50 84° S 01:32:33 10° E visible
28 May - 03:19:12 10° W 03:39:48 81° SSW 04:06:10 10° ESE visible
28 May - 05:49:04 10° WNW 06:12:29 53° SW 06:34:23 10° SSE visible
28 May - 08:26:22 10° W 08:41:16 19° SW 08:54:02 10° SSW daylight
28 May - 21:18:28 10° SSW 21:26:33 33° SE 21:40:33 10° E visible
28 May - 23:40:58 10° WSW 23:53:06 76° SSE 00:16:13 10° E visible
29 May - 02:06:55 10° W 02:24:28 86° S 02:51:15 10° ESE visible
29 May - 04:35:14 10° WNW 04:57:41 66° SSW 05:22:15 10° SE visible
29 May - 07:07:49 10° W 07:28:20 32° SW 07:46:21 10° S daylight
29 May - 20:10:52 10° SSE 20:16:04 17° SE 20:23:14 10° E daylight
29 May - 22:30:35 10° SW 22:40:29 60° SSE 22:59:50 10° ENE visible
30 May - 00:55:14 10° W 01:09:46 86° S 01:35:21 10° E visible
30 May - 03:22:19 10° W 03:42:28 76° SSW 04:08:46 10° ESE visible
30 May - 05:52:17 10° WNW 06:14:34 45° SW 06:36:11 10° SSE daylight
30 May - 08:33:12 10° W 08:43:09 14° SW 08:52:17 10° SSW daylight
30 May - 21:20:57 10° SSW 21:28:58 41° SE 21:43:38 10° ENE visible
30 May - 23:44:08 10° WSW 23:56:00 81° SSE 00:18:57 10° E visible
31 May - 02:10:07 10° W 02:27:20 83° S 02:53:59 10° ESE visible
31 May - 04:38:21 10° WNW 05:00:01 59° SSW 05:24:23 10° SE visible
31 May - 07:11:59 10° W 07:30:14 26° SW 07:47:00 10° S daylight
31 May - 20:12:28 10° S 20:18:21 22° SE 20:27:19 10° E daylight
31 May - 22:33:36 10° WSW 22:43:15 68° SSE 23:02:35 10° E visible
01 Jun - 00:58:29 10° W 01:12:45 86° S 01:38:08 10° E visible
01 Jun - 03:25:28 10° WNW 03:45:04 70° SSW 04:11:10 10° SE visible
01 Jun - 05:55:44 10° W 06:16:37 38° SW 06:37:35 10° SSE daylight
01 Jun - 21:23:41 10° SW 21:31:33 49° SE 21:46:35 10° ENE visible
01 Jun - 23:47:22 10° WSW 23:59:00 84° S 00:21:43 10° E visible
02 Jun - 02:13:19 10° W 02:30:10 79° SSW 02:56:35 10° ESE visible
02 Jun - 04:41:34 10° WNW 05:02:19 51° SW 05:26:14 10° SSE visible
02 Jun - 07:17:05 10° W 07:32:13 20° SW 07:46:41 10° SSW daylight
02 Jun - 20:14:38 10° SSW 20:20:45 29° SE 20:30:51 10° E daylight
02 Jun - 22:36:44 10° WSW 22:46:10 75° SSE 23:05:20 10° E visible
03 Jun - 01:01:45 10° W 01:15:44 85° S 01:40:52 10° ESE visible
03 Jun - 03:28:38 10° WNW 03:47:37 63° SSW 04:13:19 10° SE visible
03 Jun - 05:59:32 10° W 06:18:41 31° SW 06:38:30 10° S daylight
03 Jun - 19:07:43 10° SSE 19:10:34 13° SE 19:14:02 10° ESE daylight
03 Jun - 21:26:37 10° SW 21:34:18 58° SSE 21:49:27 10° ENE visible
